EW2748 Weather Reports


Display with metric or nautical units.
time (UTC)temp
F
wind
direction
speed
MPH
gust
MPH
rain 1hr
in
rain 24hr
in
rain mn
in
humidity
%
barometer
mb
20260903183025 96 103 1.0 4.0 0.00 0.00 0.00 47 1017.1
20260903182512 97 88 1.0 5.0 0.00 0.00 0.00 46 1017.2
20260903182015 97 175 2.0 5.0 0.00 0.00 0.00 46 1017.2
20260903181516 97 243 0.0 5.0 0.00 0.00 0.00 47 1017.2
20260903181015 97 135 3.0 5.0 0.00 0.00 0.00 46 1017.2
20260903180514 97 122 1.0 5.0 0.00 0.00 0.00 48 1017.3
20260903180018 97 109 2.0 5.0 0.00 0.00 0.00 48 1017.6
20260903175508 97 70 2.0 5.0 0.00 0.00 0.00 48 1017.5
20260903175011 97 97 0.0 5.0 0.00 0.00 0.00 49 1017.4
20260903174531 96 63 1.0 5.0 0.00 0.00 0.00 49 1017.5
20260903174004 96 97 0.0 6.0 0.00 0.00 0.00 49 1017.7
20260903173512 96 89 1.0 6.0 0.00 0.00 0.00 48 1017.9
20260903173032 97 130 1.0 2.0 0.00 0.00 0.00 50 1017.9
20260903172506 97 278 0.0 2.0 0.00 0.00 0.00 49 1018.0
20260903172015 97 278 1.0 3.0 0.00 0.00 0.00 50 1018.0
20260903171532 97 281 0.0 3.0 0.00 0.00 0.00 50 1018.0
20260903171014 96 176 0.0 3.0 0.00 0.00 0.00 53 1018.1
20260903170958 95 127 1.0 5.0 0.00 0.00 0.00 53 1018.1
20260903170953 95 277 0.0 2.0 0.00 0.00 0.00 56 1018.2
20260903170950 94 98 1.0 2.0 0.00 0.00 0.00 56 1018.3
20260903170943 94 68 0.0 2.0 0.00 0.00 0.00 57 1018.3
20260903161007 91 118 2.0 4.0 0.00 0.00 0.00 62 1018.7
20260903160513 92 218 0.0 2.0 0.00 0.00 0.00 64 1018.8
20260903160041 91 155 0.0 2.0 0.00 0.00 0.00 63 1018.9
20260903155506 91 60 0.0 1.0 0.00 0.00 0.00 65 1018.8
20260903155009 91 300 0.0 2.0 0.00 0.00 0.00 64 1018.7
20260903154530 90 89 0.0 2.0 0.00 0.00 0.00 66 1018.6
20260903154015 90 283 0.0 2.0 0.00 0.00 0.00 66 1018.7
20260903153507 90 274 0.0 2.0 0.00 0.00 0.00 64 1018.7
20260903153026 89 149 0.0 2.0 0.00 0.00 0.00 66 1018.6
20260903152025 88 252 0.0 1.0 0.00 0.00 0.00 67 1018.7
20260903151524 88 252 0.0 1.0 0.00 0.00 0.00 67 1018.7
20260903151016 88 189 0.0 1.0 0.00 0.00 0.00 68 1018.7
20260903150515 87 212 0.0 1.0 0.00 0.00 0.00 68 1018.7
20260903150016 87 218 0.0 1.0 0.00 0.00 0.00 67 1018.7
20260903145514 87 219 0.0 1.0 0.00 0.00 0.00 70 1018.7
20260903145015 87 194 0.0 1.0 0.00 0.00 0.00 68 1018.6
20260903144538 86 130 0.0 1.0 0.00 0.00 0.00 69 1018.6
20260903144013 86 131 0.0 1.0 0.00 0.00 0.00 70 1018.6
20260903143515 86 106 0.0 2.0 0.00 0.00 0.00 72 1018.6
20260903143032 85 94 0.0 2.0 0.00 0.00 0.00 73 1018.6
20260903142507 85 103 0.0 1.0 0.00 0.00 0.00 73 1018.7
20260903142017 84 143 0.0 1.0 0.00 0.00 0.00 74 1018.7
20260903141532 84 195 0.0 1.0 0.00 0.00 0.00 76 1018.7
20260903141019 83 266 0.0 1.0 0.00 0.00 0.00 76 1018.8
20260903140508 83 258 0.0 1.0 0.00 0.00 0.00 78 1018.8
20260903140031 83 258 0.0 0.0 0.00 0.00 0.00 79 1018.9
20260903135518 83 259 0.0 0.0 0.00 0.00 0.00 80 1018.9
20260903135018 82 137 0.0 0.0 0.00 0.00 0.00 79 1018.9
20260903134528 82 122 0.0 0.0 0.00 0.00 0.00 80 1018.9
20260903134015 82 154 0.0 1.0 0.00 0.00 0.00 79 1019.0
20260903133518 82 154 0.0 1.0 0.00 0.00 0.00 80 1019.0
20260903133028 82 163 0.0 0.0 0.00 0.00 0.00 80 1019.1
20260903132516 81 162 0.0 1.0 0.00 0.00 0.00 81 1019.0
20260903131535 80 181 0.0 0.0 0.00 0.00 0.00 86 1018.9
20260903131012 79 181 0.0 0.0 0.00 0.00 0.00 87 1018.9
20260903130517 79 182 0.0 0.0 0.00 0.00 0.00 88 1019.1
20260903130039 78 182 0.0 0.0 0.00 0.00 0.00 89 1019.0
20260903125509 78 181 0.0 0.0 0.00 0.00 0.00 90 1019.0
20260903125003 77 182 0.0 0.0 0.00 0.00 0.00 91 1019.1
20260903124511 77 182 0.0 0.0 0.00 0.00 0.00 91 1019.0
20260903124006 76 182 0.0 0.0 0.00 0.00 0.00 92 1019.1
20260903123510 76 182 0.0 0.0 0.00 0.00 0.00 93 1019.0
20260903123004 75 182 0.0 0.0 0.00 0.00 0.00 93 1018.9
20260903122008 75 182 0.0 0.0 0.00 0.00 0.00 94 1018.8
20260903121508 74 182 0.0 0.0 0.00 0.00 0.00 94 1018.7
20260903121003 74 182 0.0 0.0 0.00 0.00 0.00 94 1018.6
20260903120507 74 182 0.0 0.0 0.00 0.00 0.00 95 1018.7
20260903120026 74 182 0.0 0.0 0.00 0.00 0.00 95 1018.7
20260903115504 74 182 0.0 0.0 0.00 0.00 0.00 95 1018.6
20260903115004 74 182 0.0 0.0 0.00 0.00 0.00 95 1018.6
20260903114524 74 182 0.0 0.0 0.00 0.00 0.00 95 1018.6
20260903114014 74 182 0.0 0.0 0.00 0.00 0.00 95 1018.5
20260903113504 74 182 0.0 0.0 0.00 0.00 0.00 95 1018.6
20260903113019 74 182 0.0 0.0 0.00 0.00 0.00 94 1018.5
20260903112515 74 182 0.0 0.0 0.00 0.00 0.00 94 1018.4
20260903112004 74 182 0.0 0.0 0.00 0.00 0.00 94 1018.3
20260903111512 74 182 0.0 0.0 0.00 0.00 0.00 94 1018.3
20260903111012 74 182 0.0 0.0 0.00 0.00 0.00 94 1018.2
20260903110512 74 181 0.0 0.0 0.00 0.00 0.00 94 1018.2
20260903110010 74 182 0.0 0.0 0.00 0.00 0.00 94 1018.1
20260903105508 74 182 0.0 0.0 0.00 0.00 0.00 94 1018.1
20260903105011 74 181 0.0 0.0 0.00 0.00 0.00 94 1018.0
20260903104837 74 182 0.0 0.0 0.00 0.00 0.00 94 1018.0
20260903104831 75 181 0.0 0.0 0.00 0.00 0.00 94 1017.9
20260903104828 75 181 0.0 0.0 0.00 0.00 0.00 93 1017.9
20260903102504 75 181 0.0 0.0 0.00 0.00 0.00 93 1017.9
20260903102007 75 181 0.0 0.0 0.00 0.00 0.00 94 1017.8
20260903101524 74 182 0.0 0.0 0.00 0.00 0.00 95 1017.9
20260903101005 74 181 0.0 0.0 0.00 0.00 0.00 95 1017.8
20260903100509 74 182 0.0 0.0 0.00 0.00 0.00 94 1017.9
20260903100034 74 182 0.0 0.0 0.00 0.00 0.00 94 1017.8
20260903095513 74 181 0.0 0.0 0.00 0.00 0.00 94 1017.8
20260903095059 74 182 0.0 0.0 0.00 0.00 0.00 94 1017.7
20260903095053 74 182 0.0 0.0 0.00 0.00 0.00 94 1017.7
20260903095049 75 182 0.0 0.0 0.00 0.00 0.00 94 1017.7
20260903092512 75 181 0.0 0.0 0.00 0.00 0.00 94 1017.7
20260903092121 75 182 0.0 0.0 0.00 0.00 0.00 93 1017.7
20260903085504 75 181 0.0 0.0 0.00 0.00 0.00 93 1017.7
20260903085053 75 181 0.0 0.0 0.00 0.00 0.00 93 1017.6
20260903085050 75 182 0.0 0.0 0.00 0.00 0.00 93 1017.6
20260903085045 75 181 0.0 0.0 0.00 0.00 0.00 93 1017.5
20260903085041 75 181 0.0 0.0 0.00 0.00 0.00 93 1017.5
20260903082513 75 181 0.0 0.0 0.00 0.00 0.00 92 1017.6
20260903082008 75 181 0.0 0.0 0.00 0.00 0.00 92 1017.7
20260903081521 75 181 0.0 0.0 0.00 0.00 0.00 93 1017.6
20260903081012 75 181 0.0 0.0 0.00 0.00 0.00 92 1017.4
20260903080516 75 181 0.0 0.0 0.00 0.00 0.00 92 1017.4
20260903080014 76 181 0.0 0.0 0.00 0.00 0.00 92 1017.6
20260903075511 76 181 0.0 0.0 0.00 0.00 0.00 92 1017.6
20260903075014 76 181 0.0 0.0 0.00 0.00 0.00 92 1017.6
20260903074509 76 181 0.0 0.0 0.00 0.00 0.00 92 1017.6
20260903074007 76 181 0.0 0.0 0.00 0.00 0.00 92 1017.6
20260903073512 76 181 0.0 0.0 0.00 0.00 0.00 91 1017.6
20260903073036 76 181 0.0 0.0 0.00 0.00 0.00 91 1017.7
20260903072008 76 181 0.0 0.0 0.00 0.00 0.00 91 1017.6
20260903071530 76 181 0.0 0.0 0.00 0.00 0.00 91 1017.7
20260903071004 76 181 0.0 0.0 0.00 0.00 0.00 90 1017.7
20260903070507 76 181 0.0 0.0 0.00 0.00 0.00 90 1017.6
20260903070025 76 181 0.0 0.0 0.00 0.00 0.00 90 1017.6
20260903065514 76 181 0.0 0.0 0.00 0.00 0.00 90 1017.6
20260903065004 77 181 0.0 0.0 0.00 0.00 0.00 90 1017.6
20260903064522 77 181 0.0 0.0 0.00 0.00 0.00 90 1017.7
20260903064014 77 181 0.0 0.0 0.00 0.00 0.00 90 1017.7
20260903063504 77 181 0.0 0.0 0.00 0.00 0.00 90 1017.7
20260903063017 77 181 0.0 0.0 0.00 0.00 0.00 90 1017.8
20260903062512 77 181 0.0 0.0 0.00 0.00 0.00 90 1017.8
20260903062014 77 181 0.0 0.0 0.00 0.00 0.00 89 1017.8
20260903061512 77 181 0.0 0.0 0.00 0.00 0.00 89 1017.8
20260903061011 77 181 0.0 0.0 0.00 0.00 0.00 89 1017.9
20260903060513 77 181 0.0 0.0 0.00 0.00 0.00 89 1018.0
20260903060033 77 181 0.0 0.0 0.00 0.00 0.00 89 1017.9
20260903055507 77 181 0.0 0.0 0.00 0.00 0.00 89 1017.8
20260903055012 77 181 0.0 0.0 0.00 0.00 0.00 89 1017.9
20260903054531 77 181 0.0 0.0 0.00 0.00 0.00 89 1018.0
20260903054009 77 181 0.0 0.0 0.00 0.00 0.00 89 1017.9
20260903053510 77 181 0.0 0.0 0.00 0.00 0.00 89 1017.9
20260903053029 77 181 0.0 0.0 0.00 0.00 0.00 89 1017.9
20260903052519 78 181 0.0 0.0 0.00 0.00 0.00 89 1017.9
20260903052008 78 181 0.0 0.0 0.00 0.00 0.00 89 1018.1
20260903051527 78 181 0.0 0.0 0.00 0.00 0.00 88 1018.0
20260903051013 78 181 0.0 0.0 0.00 0.00 0.00 88 1018.0
20260903050506 78 181 0.0 0.0 0.00 0.00 0.00 88 1018.0
20260903050034 78 181 0.0 0.0 0.00 0.00 0.00 88 1017.9
20260903045514 78 181 0.0 0.0 0.00 0.00 0.00 88 1017.9
20260903045020 78 181 0.0 0.0 0.00 0.00 0.00 88 1018.0
20260903044512 78 181 0.0 0.0 0.00 0.00 0.00 88 1017.9
20260903044016 78 181 0.0 0.0 0.00 0.00 0.00 87 1017.6
20260903043516 78 181 0.0 0.0 0.00 0.00 0.00 87 1017.8
20260903043030 78 181 0.0 0.0 0.00 0.00 0.00 87 1017.8
20260903042512 78 181 0.0 0.0 0.00 0.00 0.00 86 1017.9
20260903042015 79 181 0.0 0.0 0.00 0.00 0.00 86 1017.8
20260903041511 79 181 0.0 0.0 0.00 0.00 0.00 86 1017.5
20260903041012 79 181 0.0 0.0 0.00 0.00 0.00 86 1017.7
20260903040511 79 181 0.0 0.0 0.00 0.00 0.00 85 1017.7
20260903040010 79 181 0.0 0.0 0.00 0.00 0.00 85 1017.8
20260903035503 79 181 0.0 0.0 0.00 0.00 0.00 85 1017.8
20260903035008 79 181 0.0 0.0 0.00 0.00 0.00 85 1017.6
20260903034526 79 181 0.0 0.0 0.00 0.00 0.00 83 1017.8
20260903034004 79 181 0.0 0.0 0.00 0.00 0.00 83 1017.9
20260903033508 79 181 0.0 0.0 0.00 0.00 0.00 83 1018.0
20260903033029 80 181 0.0 0.0 0.00 0.00 0.00 83 1017.9
20260903032515 80 181 0.0 0.0 0.00 0.00 0.00 82 1017.8
20260903032005 80 181 0.0 0.0 0.00 0.00 0.00 82 1018.0
20260903031527 80 181 0.0 0.0 0.00 0.00 0.00 82 1018.0
20260903031013 80 181 0.0 0.0 0.00 0.00 0.00 82 1018.1
20260903030508 80 181 0.0 0.0 0.00 0.00 0.00 80 1017.8
20260903030021 80 181 0.0 0.0 0.00 0.00 0.00 80 1017.8
20260903025509 80 181 0.0 0.0 0.00 0.00 0.00 81 1018.0
20260903025014 80 181 0.0 0.0 0.00 0.00 0.00 81 1018.0
20260903024511 81 181 0.0 0.0 0.00 0.00 0.00 80 1017.9
20260903024006 81 181 0.0 0.0 0.00 0.00 0.00 80 1017.6
20260903023516 81 181 0.0 0.0 0.00 0.00 0.00 80 1017.7
20260903023008 81 181 0.0 0.0 0.00 0.00 0.00 79 1017.8
20260903022508 81 181 0.0 0.0 0.00 0.00 0.00 78 1017.9
20260903022015 81 181 0.0 0.0 0.00 0.00 0.00 78 1017.7
20260903021539 81 181 0.0 0.0 0.00 0.00 0.00 77 1017.6
20260903021003 82 181 0.0 0.0 0.00 0.00 0.00 77 1017.7
20260903020510 82 181 0.0 0.0 0.00 0.00 0.00 77 1017.8
20260903020034 82 181 0.0 0.0 0.00 0.00 0.00 77 1017.8
20260903015505 82 181 0.0 0.0 0.00 0.00 0.00 77 1017.5
20260903015006 82 181 0.0 0.0 0.00 0.00 0.00 75 1017.6
20260903014524 82 181 0.0 0.0 0.00 0.00 0.00 75 1017.7
20260903014015 83 181 0.0 0.0 0.00 0.00 0.00 75 1017.8
20260903013505 83 181 0.0 0.0 0.00 0.00 0.00 73 1017.5
20260903013017 83 181 0.0 0.0 0.00 0.00 0.00 73 1017.4
20260903012511 83 181 0.0 0.0 0.00 0.00 0.00 74 1017.4
20260903012014 83 181 0.0 0.0 0.00 0.00 0.00 73 1017.5
20260903011516 84 181 0.0 0.0 0.00 0.00 0.00 72 1017.4
20260903011008 84 181 0.0 0.0 0.00 0.00 0.00 72 1017.2
20260903010517 84 181 0.0 0.0 0.00 0.00 0.00 71 1017.1
20260903010010 84 181 0.0 0.0 0.00 0.00 0.00 70 1017.2
20260903005506 85 181 0.0 0.0 0.00 0.00 0.00 70 1017.2
20260903005014 85 181 0.0 0.0 0.00 0.00 0.00 69 1017.1
20260903004536 85 181 0.0 0.0 0.00 0.00 0.00 70 1017.1
20260903004008 86 181 0.0 0.0 0.00 0.00 0.00 68 1016.9
20260903003510 86 181 0.0 0.0 0.00 0.00 0.00 69 1017.2
20260903003028 86 181 0.0 0.0 0.00 0.00 0.00 66 1017.2
20260903002507 86 181 0.0 0.0 0.00 0.00 0.00 66 1017.0
20260903002007 87 181 0.0 0.0 0.00 0.00 0.00 65 1017.0
20260903001527 87 181 0.0 0.0 0.00 0.00 0.00 64 1017.2
20260903001012 87 181 0.0 0.0 0.00 0.00 0.00 64 1017.1
20260903000506 88 181 0.0 0.0 0.00 0.00 0.00 63 1016.8
20260903000038 88 181 0.0 0.0 0.00 0.00 0.00 62 1016.9
20260902235514 89 181 0.0 0.0 0.00 0.00 0.00 61 1017.0
20260902235017 89 181 0.0 0.0 0.00 0.00 0.00 60 1017.0
20260902234516 89 181 0.0 0.0 0.00 0.00 0.00 60 1016.9
20260902234009 90 181 0.0 0.0 0.00 0.00 0.00 59 1017.0
20260902233515 90 181 0.0 0.0 0.00 0.00 0.00 58 1017.1
20260902233013 90 181 0.0 0.0 0.00 0.00 0.00 57 1016.9
20260902232507 90 181 0.0 0.0 0.00 0.00 0.00 57 1017.1
20260902232011 91 181 0.0 0.0 0.00 0.00 0.00 56 1017.0
20260902231534 91 181 0.0 0.0 0.00 0.00 0.00 56 1017.1
20260902231008 91 181 0.0 0.0 0.00 0.00 0.00 56 1017.1
20260902230516 91 181 0.0 0.0 0.00 0.00 0.00 56 1016.9
20260902230029 92 181 0.0 0.0 0.00 0.00 0.00 55 1017.1
20260902225504 92 181 0.0 0.0 0.00 0.00 0.00 53 1017.2
20260902225012 93 172 0.0 2.0 0.00 0.00 0.00 53 1017.2
20260902224527 93 84 0.0 2.0 0.00 0.00 0.00 53 1017.0
20260902224015 93 78 1.0 2.0 0.00 0.00 0.00 53 1017.0
20260902223025 93 122 0.0 0.0 0.00 0.00 0.00 49 1017.2
20260902222515 93 122 0.0 0.0 0.00 0.00 0.00 52 1017.1
20260902222006 93 122 0.0 1.0 0.00 0.00 0.00 50 1017.2
20260902221520 93 122 0.0 1.0 0.00 0.00 0.00 51 1017.2
20260902221013 94 122 0.0 2.0 0.00 0.00 0.00 50 1017.2
20260902220504 94 162 0.0 2.0 0.00 0.00 0.00 48 1017.1
20260902220025 94 156 0.0 2.0 0.00 0.00 0.00 49 1017.2
20260902215511 94 143 0.0 2.0 0.00 0.00 0.00 50 1017.2
20260902215003 94 138 0.0 1.0 0.00 0.00 0.00 50 1017.2
20260902214531 94 165 0.0 1.0 0.00 0.00 0.00 48 1017.2
20260902214010 94 248 0.0 1.0 0.00 0.00 0.00 51 1017.3
20260902213514 93 248 0.0 1.0 0.00 0.00 0.00 49 1017.2
20260902213008 94 215 0.0 1.0 0.00 0.00 0.00 50 1017.4
20260902212506 94 217 0.0 2.0 0.00 0.00 0.00 49 1017.4
20260902212013 94 161 0.0 2.0 0.00 0.00 0.00 49 1017.4
20260902211506 94 111 0.0 2.0 0.00 0.00 0.00 50 1017.5
20260902211006 94 101 0.0 2.0 0.00 0.00 0.00 49 1017.6
20260902210511 94 136 0.0 2.0 0.00 0.00 0.00 50 1017.6
20260902210028 94 186 0.0 2.0 0.00 0.00 0.00 50 1017.5
20260902205503 95 116 0.0 5.0 0.00 0.00 0.00 50 1017.7
20260902205008 95 98 2.0 5.0 0.00 0.00 0.00 49 1017.5
20260902204526 96 276 0.0 1.0 0.00 0.00 0.00 50 1017.7
20260902204016 96 276 0.0 3.0 0.00 0.00 0.00 48 1017.6
20260902203504 97 275 0.0 3.0 0.00 0.00 0.00 46 1017.6
20260902203018 97 15 0.0 2.0 0.00 0.00 0.00 47 1017.8
20260902202510 96 80 0.0 3.0 0.00 0.00 0.00 48 1017.8
20260902202004 96 164 1.0 3.0 0.00 0.00 0.00 48 1017.8
20260902201529 96 79 1.0 3.0 0.00 0.00 0.00 46 1017.9
20260902201008 96 55 0.0 2.0 0.00 0.00 0.00 49 1018.0
20260902200514 96 274 0.0 2.0 0.00 0.00 0.00 49 1018.1
20260902200008 97 322 0.0 2.0 0.00 0.00 0.00 46 1018.2
20260902195510 97 204 0.0 3.0 0.00 0.00 0.00 48 1018.2
20260902195010 96 94 0.0 3.0 0.00 0.00 0.00 47 1018.2
20260902194530 96 103 0.0 2.0 0.00 0.00 0.00 46 1018.3
20260902194004 96 109 0.0 1.0 0.00 0.00 0.00 49 1018.3
20260902193508 95 210 0.0 1.0 0.00 0.00 0.00 51 1018.4
20260902193029 95 218 0.0 1.0 0.00 0.00 0.00 49 1018.4
20260902192502 96 208 0.0 1.0 0.00 0.00 0.00 50 1018.5
20260902192005 97 160 0.0 2.0 0.00 0.00 0.00 49 1018.7
20260902191527 97 156 0.0 3.0 0.00 0.00 0.00 48 1018.8
20260902191015 98 261 1.0 3.0 0.00 0.00 0.00 45 1018.6
20260902190506 98 136 0.0 2.0 0.00 0.00 0.00 48 1018.7
20260902190024 98 275 0.0 2.0 0.00 0.00 0.00 45 1018.6
20260902185512 98 203 0.0 2.0 0.00 0.00 0.00 46 1018.8
20260902185006 98 131 0.0 2.0 0.00 0.00 0.00 48 1019.0
20260902184522 97 187 0.0 3.0 0.00 0.00 0.00 46 1019.0
20260902184013 96 103 0.0 3.0 0.00 0.00 0.00 46 1019.0
20260902183516 97 122 0.0 3.0 0.00 0.00 0.00 48 1018.9